Regional Weather Roundup
Issued by NWS

Home | Current Version | Previous Version | Text Only | Print | Product List | Glossary Off
Versions: 1 2 3 4 5 6 7 8 9 10 11 12 13 14 15 16 17 18 19 20 21 22 23 24 25 26 27 28 29 30 31 32 33 34 35 36 37 38 39 40 41 42 43 44 45 46 47 48 49 50

000
ASUS45 KPSR 012010
RWRAZ

ARIZONA HOURLY REGIONAL WEATHER ROUNDUP
NATIONAL WEATHER SERVICE PHOENIX AZ
100 PM MST TUE SEP 01 2015

NOTE: FAIR INDICATES FEW OR NO CLOUDS BELOW 12,000 FEET WITH NO
SIGNIFICANT WEATHER AND/OR OBSTRUCTIONS TO VISIBILITY.

AZZ001>003-036-012100-
NORTHWEST ARIZONA

CITY           SKY/WX    TMP DP  RH WIND       PRES   REMARKS
BULLHEAD CITY  SUNNY     99  57  25 SW13      29.83F
KINGMAN        MOSUNNY   91  49  23 SW14      30.02F
$$

AZZ004>008-015-016-018-012100-
NORTH CENTRAL ARIZONA

CITY           SKY/WX    TMP DP  RH WIND       PRES   REMARKS
GRAND CANYON   SUNNY     78  48  34 SW5       30.25F
WILLIAMS       MOSUNNY   79  48  34 SW15      30.30S
PRESCOTT       PTSUNNY   81  55  40 VRB6      30.14F THUNDER
FLAGSTAFF      MOSUNNY   75  48  38 S12G17    30.29F
PAYSON         PTSUNNY   81  54  39 S9        30.18F
PAGE           MOSUNNY   87  52  29 N5        30.07F
$$

AZZ009>014-017-012100-
NORTHEAST ARIZONA

CITY           SKY/WX    TMP DP  RH WIND       PRES   REMARKS
WINSLOW        SUNNY     81  57  43 VRB6      30.15F
SAINT JOHNS    MOSUNNY   81  47  30 CALM      30.19F
WINDOW ROCK    PTSUNNY   80  46  30 VRB7      30.27F
SHOW LOW       MOSUNNY   73  48  40 CALM      30.26F
$$

AZZ023-012100-
GREATER PHOENIX AREA

CITY           SKY/WX    TMP DP  RH WIND       PRES   REMARKS
PHOENIX        PTSUNNY   95  65  37 SE8       29.88F
BUCKEYE        MOSUNNY   95  59  30 E10       29.88F
GLENDALE       PTSUNNY   97  61  30 VRB5      29.90F
LUKE AFB       MOSUNNY   95  60  31 SE7       29.87F
DEER VALLEY    MOSUNNY   93  59  31 VRB6      29.90F
SCOTTSDALE     PTSUNNY   92  58  31 VRB3      29.92F
MESA-FALCON    PTSUNNY   97  61  30 E9        29.91F
MESA-GATEWAY   MOSUNNY   91  63  38 SE7       29.93F
CHANDLER       PTSUNNY   93  63  36 E7        29.90F
$$

AZZ027-028-012100-
SOUTHWEST MARICOPA COUNTY AND PINAL COUNTY

CITY           SKY/WX    TMP DP  RH WIND       PRES   REMARKS
CASA GRANDE    MOSUNNY   93  64  38 CALM      29.91S
GILA BEND      MOSUNNY   99  57  24 E8        29.83F
$$

AZZ503-504-507>509-012100-
SOUTHEAST ARIZONA

CITY           SKY/WX    TMP DP  RH WIND       PRES   REMARKS
TUCSON         SUNNY     92  60  34 VRB3      30.00F
DAVIS-MONTHAN  MOSUNNY   90  60  37 W1        29.98F
RYAN FIELD     SUNNY     93  63  36 N5        29.98F
SIERRA VISTA   PTSUNNY   87  53  31 SE8       30.14F
DOUGLAS        MOSUNNY   87  51  28 MISG      30.10F
SAFFORD        CLOUDY    80  65  59 CALM      30.04F
$$

AZZ020-021-025-026-031-012100-
SOUTHWEST ARIZONA

CITY           SKY/WX    TMP DP  RH WIND       PRES   REMARKS
YUMA           PTSUNNY  101  61  26 SE10      29.79F HX 102
$$

CAZ031-033-041-043-047-048-061-012100-
SOUTHERN CALIFORNIA

CITY           SKY/WX    TMP DP  RH WIND       PRES   REMARKS
DOWNTOWN L.A.  MOSUNNY   82  58  43 CALM      29.90F
L.A. AIRPORT   PTSUNNY   76  62  62 W13       29.91F
SAN DIEGO      PTSUNNY   76  61  59 W9        29.93F
BURBANK        SUNNY     81  57  43 S5        29.91F
ONTARIO        PTSUNNY   83  54  36 SW8       29.91F
RIVERSIDE      PTSUNNY   81  55  40 VRB6      29.91F
PALM SPRINGS   SUNNY     98  54  22 NE9       29.84F
EL CENTRO NAS  PTSUNNY   97  68  38 SW3       29.78F HX 102
IMPERIAL       MOSUNNY  100  70  37 SE10G16   29.76F HX 107
BLYTHE         MOSUNNY   98  66  34 S10       29.81F HX 101
NEEDLES        SUNNY    100  55  22 SE9       29.83F
$$

NVZ020-UTZ003-012100-
SOUTHERN NEVADA-UTAH

CITY           SKY/WX    TMP DP  RH WIND       PRES   REMARKS
LAS VEGAS      MOSUNNY   97  51  21 S12       29.85F
SALT LAKE CITY MOSUNNY   91  43  18 S20G25    29.94F
$$

NMZ009-TXZ055-012100-
NEW MEXICO-WEST TEXAS

CITY           SKY/WX    TMP DP  RH WIND       PRES   REMARKS
ALBUQUERQUE    PTSUNNY   86  43  22 W7        30.16F
EL PASO        MOSUNNY   94  44  17 VRB3      30.04F
$$


........................KEY........................
SKY/WX - SKY CONDITION/WEATHER
TMP    - TEMPERATURE IN FAHRENHEIT
DP     - DEW POINT IN FAHRENHEIT
RH     - RELATIVE HUMIDITY IN PERCENT
WIND   - DIRECTION AND SPEED IN MILES PER HOUR (MPH)
VRB    - VARIABLE WIND DIRECTION
PRES   - MEAN SEA LEVEL PRESSURE IN INCHES OF MERCURY
         F - FALLING PRESSURE   R - RISING PRESSURE
         S - STEADY PRESSURE
VSB    - VISIBILITY IN MILES
HX     - HEAT INDEX IN FAHRENHEIT
WCI    - WIND CHILL INDEX IN FAHRENHEIT
TC     - TEMPERATURE IN CELSIUS WHICH IS ALSO KNOWN AS
         TEMPERATURE IN CENTIGRADE
AFB    - AIR FORCE BASE
         LUKE AFB IS LUKE AIR FORCE BASE
         DAVIS-MONTHAN IS DAVIS-MONTHAN AIR FORCE BASE
NAS    - NAVAL AIR STATION
         EL CENTRO NAS IS EL CENTRO NAVAL AIR STATION
N/A    - NOT AVAILABLE



USA.gov is the U.S. government's official web portal to all federal, state and local government web resources and services.